Heubes-Wetterstation in 44289 Dortmund
Heubes-Wetterstation

Messwerte der letzten 60 Minuten im Minuten-Intervall (Wetterstation 44289 Dortmund)

Datum & Uhrzeit Temp. Feucht. Wind-Ø Böen Sekt.  Regen Rate Luftdruck
18.04.2019 - 22:2714.9 °C48.5%1 km/h 7 km/h NO0.0 mm 0.0 mm 1026.5 hPa, gleichbleibend
18.04.2019 - 22:2614.9 °C49%1 km/h 5 km/h O-NO0.0 mm 0.0 mm 1026.5 hPa, gleichbleibend
18.04.2019 - 22:2514.9 °C49%1 km/h 3 km/h NO0.0 mm 0.0 mm 1026.4 hPa, gleichbleibend
18.04.2019 - 22:2414.9 °C49%1 km/h 0 km/h O-NO0.0 mm 0.0 mm 1026.5 hPa, gleichbleibend
18.04.2019 - 22:2314.9 °C49%1 km/h 3 km/h NO0.0 mm 0.0 mm 1026.4 hPa, gleichbleibend
18.04.2019 - 22:2215.0 °C48.5%1 km/h 5 km/h NO0.0 mm 0.0 mm 1026.4 hPa, gleichbleibend
18.04.2019 - 22:2115.1 °C48%1 km/h 7 km/h NO0.0 mm 0.0 mm 1026.4 hPa, gleichbleibend
18.04.2019 - 22:2015.1 °C48%1 km/h 5 km/h NO0.0 mm 0.0 mm 1026.4 hPa, gleichbleibend
18.04.2019 - 22:1915.1 °C48%1 km/h 3 km/h NO0.0 mm 0.0 mm 1026.4 hPa, gleichbleibend
18.04.2019 - 22:1815.1 °C48%1 km/h 3 km/h NO0.0 mm 0.0 mm 1026.4 hPa, gleichbleibend
18.04.2019 - 22:1715.1 °C48%1 km/h 5 km/h NO0.0 mm 0.0 mm 1026.4 hPa, gleichbleibend
18.04.2019 - 22:1615.1 °C48%1 km/h 5 km/h NO0.0 mm 0.0 mm 1026.4 hPa, gleichbleibend
18.04.2019 - 22:1515.1 °C48%1 km/h 3 km/h O-NO0.0 mm 0.0 mm 1026.4 hPa, gleichbleibend
18.04.2019 - 22:1415.2 °C48%1 km/h 5 km/h O-NO0.0 mm 0.0 mm 1026.4 hPa, langsam steigend
18.04.2019 - 22:1315.2 °C48%1 km/h 8 km/h O0.0 mm 0.0 mm 1026.3 hPa, gleichbleibend
18.04.2019 - 22:1215.2 °C48%1 km/h 5 km/h NO0.0 mm 0.0 mm 1026.3 hPa, langsam fallend
18.04.2019 - 22:1115.2 °C48%1 km/h 3 km/h O-NO0.0 mm 0.0 mm 1026.4 hPa, gleichbleibend
18.04.2019 - 22:1015.2 °C48%2 km/h 11 km/h N-NO0.0 mm 0.0 mm 1026.4 hPa, gleichbleibend
18.04.2019 - 22:0915.2 °C48%3 km/h 3 km/h NO0.0 mm 0.0 mm 1026.4 hPa, gleichbleibend
18.04.2019 - 22:0815.3 °C48%3 km/h 1 km/h NO0.0 mm 0.0 mm 1026.4 hPa, langsam steigend
18.04.2019 - 22:0715.3 °C48%3 km/h 5 km/h O-NO0.0 mm 0.0 mm 1026.3 hPa, gleichbleibend
18.04.2019 - 22:0615.3 °C48%3 km/h 7 km/h NO0.0 mm 0.0 mm 1026.3 hPa, gleichbleibend
18.04.2019 - 22:0515.3 °C48%3 km/h 8 km/h O-NO0.0 mm 0.0 mm 1026.3 hPa, gleichbleibend
18.04.2019 - 22:0415.3 °C48%3 km/h 3 km/h O-NO0.0 mm 0.0 mm 1026.3 hPa, gleichbleibend
18.04.2019 - 22:0315.3 °C48%3 km/h 7 km/h NO0.0 mm 0.0 mm 1026.3 hPa, gleichbleibend
18.04.2019 - 22:0215.3 °C47.8%3 km/h 7 km/h N-NO0.0 mm 0.0 mm 1026.3 hPa, gleichbleibend
18.04.2019 - 22:0115.4 °C48%3 km/h 3 km/h O0.0 mm 0.0 mm 1026.3 hPa, gleichbleibend
18.04.2019 - 22:0015.4 °C48%3 km/h 7 km/h N-NO0.0 mm 0.0 mm 1026.3 hPa, gleichbleibend
18.04.2019 - 21:5915.4 °C48%3 km/h 11 km/h NO0.0 mm 0.0 mm 1026.2 hPa, gleichbleibend
18.04.2019 - 21:5815.4 °C48%3 km/h 5 km/h NO0.0 mm 0.0 mm 1026.2 hPa, gleichbleibend
18.04.2019 - 21:5715.4 °C47%3 km/h 5 km/h NO0.0 mm 0.0 mm 1026.3 hPa, gleichbleibend
18.04.2019 - 21:5615.4 °C48%3 km/h 8 km/h NO0.0 mm 0.0 mm 1026.2 hPa, gleichbleibend
18.04.2019 - 21:5515.4 °C48%3 km/h 7 km/h NO0.0 mm 0.0 mm 1026.3 hPa, gleichbleibend
18.04.2019 - 21:5415.5 °C47.5%3 km/h 3 km/h O-NO0.0 mm 0.0 mm 1026.2 hPa, gleichbleibend
18.04.2019 - 21:5315.5 °C48%3 km/h 7 km/h O-NO0.0 mm 0.0 mm 1026.2 hPa, gleichbleibend
18.04.2019 - 21:5215.6 °C48%3 km/h 8 km/h NO0.0 mm 0.0 mm 1026.2 hPa, gleichbleibend
18.04.2019 - 21:5115.6 °C48%1 km/h 11 km/h NO0.0 mm 0.0 mm 1026.2 hPa, gleichbleibend
18.04.2019 - 21:5015.6 °C47.5%1 km/h 5 km/h NO0.0 mm 0.0 mm 1026.2 hPa, langsam steigend
18.04.2019 - 21:4915.6 °C48%1 km/h 8 km/h O-NO0.0 mm 0.0 mm 1026.1 hPa, langsam fallend
18.04.2019 - 21:4815.6 °C48%1 km/h 8 km/h NO0.0 mm 0.0 mm 1026.2 hPa, gleichbleibend
18.04.2019 - 21:4715.6 °C47.5%1 km/h 8 km/h O-NO0.0 mm 0.0 mm 1026.2 hPa, gleichbleibend
18.04.2019 - 21:4615.7 °C48%1 km/h 11 km/h O-NO0.0 mm 0.0 mm 1026.2 hPa, gleichbleibend
18.04.2019 - 21:4515.7 °C48%1 km/h 11 km/h O-SO0.0 mm 0.0 mm 1026.2 hPa, langsam steigend
18.04.2019 - 21:4415.7 °C48%1 km/h 7 km/h O0.0 mm 0.0 mm 1026.1 hPa, langsam fallend
18.04.2019 - 21:4315.7 °C48%2 km/h 5 km/h NO0.0 mm 0.0 mm 1026.2 hPa, langsam steigend
18.04.2019 - 21:4215.7 °C47.5%3 km/h 1 km/h NO0.0 mm 0.0 mm 1026.1 hPa, gleichbleibend
18.04.2019 - 21:4115.8 °C48%3 km/h 7 km/h NO0.0 mm 0.0 mm 1026.1 hPa, gleichbleibend
18.04.2019 - 21:4015.8 °C47.7%3 km/h 0 km/h O-NO0.0 mm 0.0 mm 1026.1 hPa, gleichbleibend
18.04.2019 - 21:3915.8 °C47%3 km/h 8 km/h O-NO0.0 mm 0.0 mm 1026.1 hPa, gleichbleibend
18.04.2019 - 21:3815.8 °C47%3 km/h 7 km/h NO0.0 mm 0.0 mm 1026.1 hPa, gleichbleibend
18.04.2019 - 21:3715.8 °C47%3 km/h 8 km/h O0.0 mm 0.0 mm 1026.1 hPa, gleichbleibend
18.04.2019 - 21:3615.8 °C47%3 km/h 8 km/h NO0.0 mm 0.0 mm 1026.1 hPa, gleichbleibend
18.04.2019 - 21:3515.8 °C47%3 km/h 10 km/h NO0.0 mm 0.0 mm 1026.1 hPa, gleichbleibend
18.04.2019 - 21:3415.8 °C47%3 km/h 8 km/h NO0.0 mm 0.0 mm 1026.1 hPa, gleichbleibend
18.04.2019 - 21:3315.9 °C47%3 km/h 10 km/h NO0.0 mm 0.0 mm 1026.1 hPa, gleichbleibend
18.04.2019 - 21:3215.9 °C47%3 km/h 8 km/h N-NO0.0 mm 0.0 mm 1026.1 hPa, gleichbleibend
18.04.2019 - 21:3115.9 °C47%3 km/h 5 km/h O-NO0.0 mm 0.0 mm 1026.1 hPa, gleichbleibend
18.04.2019 - 21:3015.9 °C47%3 km/h 0 km/h O-NO0.0 mm 0.0 mm 1026.1 hPa, gleichbleibend
18.04.2019 - 21:2915.9 °C47%3 km/h 10 km/h O-NO0.0 mm 0.0 mm 1026.1 hPa, gleichbleibend
18.04.2019 - 21:2816.0 °C47%3 km/h 7 km/h NO0.0 mm 0.0 mm 1026.1 hPa, gleichbleibend